Time,TemperatureF,DewpointF,PressureIn,WindDirection,WindDirectionDegrees,WindSpeedMPH,WindSpeedGustMPH,Humidity,HourlyPrecipIn,Conditions,Clouds,dailyrainin,SoftwareType,DateUTC
2013-04-23 00:04:00,44.4,40.2,29.24,NE,45,18.8,21.9,85,0.00,RA,OVC,0.00,WeatherDisplay:10.37,2013-04-22 23:04:00,
2013-04-23 00:09:00,44.4,40.2,29.24,WNW,292,15.0,15.0,85,0.00,RA,OVC,0.00,WeatherDisplay:10.37,2013-04-22 23:09:00,
2013-04-23 00:14:00,44.4,40.2,29.24,SSW,202,11.1,15.0,85,0.00,,OVC,0.00,WeatherDisplay:10.37,2013-04-22 23:14:00,
2013-04-23 00:19:00,44.4,40.2,29.24,SSW,202,9.7,9.7,85,0.00,,OVC,0.00,WeatherDisplay:10.37,2013-04-22 23:19:00,
2013-04-23 00:24:00,44.2,40.0,29.24,WSW,248,19.8,20.7,85,0.00,,OVC,0.00,WeatherDisplay:10.37,2013-04-22 23:24:00,
2013-04-23 00:29:00,44.2,40.0,29.24,WSW,248,14.2,16.1,85,0.00,,OVC,0.00,WeatherDisplay:10.37,2013-04-22 23:29:00,
2013-04-23 00:34:00,44.2,40.0,29.24,SW,225,17.3,18.4,85,0.00,,OVC,0.00,WeatherDisplay:10.37,2013-04-22 23:34:00,
2013-04-23 00:39:00,44.2,40.0,29.24,West,270,9.2,19.6,85,0.00,,OVC,0.00,WeatherDisplay:10.37,2013-04-22 23:39:00,
2013-04-23 00:44:00,44.2,40.0,29.24,WSW,248,9.1,11.5,85,0.00,,OVC,0.00,WeatherDisplay:10.37,2013-04-22 23:44:00,
2013-04-23 00:49:00,44.2,40.0,29.24,WSW,248,9.3,12.7,85,0.00,,OVC,0.00,WeatherDisplay:10.37,2013-04-22 23:49:00,
2013-04-23 00:54:00,44.2,40.0,29.24,WSW,248,12.5,13.8,85,0.00,,OVC,0.00,WeatherDisplay:10.37,2013-04-22 23:54:00,
2013-04-23 00:59:00,44.1,39.8,29.24,West,270,14.0,15.0,85,0.00,,OVC,0.00,WeatherDisplay:10.37,2013-04-22 23:59:00,
2013-04-23 01:04:00,43.9,39.7,29.24,WSW,248,8.4,10.4,85,0.00,,OVC,0.00,WeatherDisplay:10.37,2013-04-23 00:04:00,
2013-04-23 01:09:00,43.9,39.4,29.24,SE,135,4.9,5.8,84,0.00,,OVC,0.00,WeatherDisplay:10.37,2013-04-23 00:09:00,
2013-04-23 01:14:00,43.9,39.4,29.24,West,270,11.8,11.8,84,0.00,,OVC,0.00,WeatherDisplay:10.37,2013-04-23 00:14:00,
2013-04-23 01:19:00,43.9,39.4,29.24,West,270,8.0,13.8,84,0.00,,OVC,0.00,WeatherDisplay:10.37,2013-04-23 00:19:00,
2013-04-23 01:24:00,43.7,39.2,29.24,SW,225,8.7,18.4,84,0.00,,OVC,0.00,WeatherDisplay:10.37,2013-04-23 00:24:00,
2013-04-23 01:29:00,43.5,39.0,29.24,SW,225,8.9,9.2,84,0.00,,OVC,0.00,WeatherDisplay:10.37,2013-04-23 00:29:00,
2013-04-23 01:34:00,43.7,39.5,29.24,WNW,292,18.3,20.7,85,0.00,,OVC,0.00,WeatherDisplay:10.37,2013-04-23 00:34:00,
2013-04-23 01:39:00,43.7,39.5,29.24,SW,225,18.6,19.6,85,0.00,,OVC,0.00,WeatherDisplay:10.37,2013-04-23 00:39:00,
2013-04-23 01:44:00,43.7,39.5,29.24,SW,225,20.8,20.8,85,0.00,,OVC,0.00,WeatherDisplay:10.37,2013-04-23 00:44:00,
2013-04-23 01:49:00,43.9,39.7,29.24,WSW,248,7.8,18.4,85,0.00,,OVC,0.00,WeatherDisplay:10.37,2013-04-23 00:49:00,
2013-04-23 01:54:00,43.9,39.7,29.25,WNW,292,8.6,9.2,85,0.00,,OVC,0.00,WeatherDisplay:10.37,2013-04-23 00:54:00,
2013-04-23 01:59:00,44.2,40.0,29.25,WNW,292,8.1,8.1,85,0.00,,OVC,0.00,WeatherDisplay:10.37,2013-04-23 00:59:00,
2013-04-23 02:04:00,44.2,40.0,29.25,West,270,13.8,13.8,85,0.00,,OVC,0.00,WeatherDisplay:10.37,2013-04-23 01:04:00,
2013-04-23 02:09:00,44.2,40.0,29.25,WNW,292,13.1,19.6,85,0.00,,OVC,0.00,WeatherDisplay:10.37,2013-04-23 01:09:00,
2013-04-23 02:14:00,44.2,40.0,29.25,WSW,248,19.9,19.9,85,0.00,,OVC,0.00,WeatherDisplay:10.37,2013-04-23 01:14:00,
2013-04-23 02:19:00,44.2,40.0,29.25,West,270,16.3,16.3,85,0.00,,OVC,0.00,WeatherDisplay:10.37,2013-04-23 01:19:00,
2013-04-23 02:24:00,44.1,39.8,29.25,WSW,248,12.3,15.0,85,0.00,,OVC,0.00,WeatherDisplay:10.37,2013-04-23 01:24:00,
2013-04-23 02:29:00,44.1,39.8,29.25,WSW,248,11.3,11.3,85,0.00,,OVC,0.00,WeatherDisplay:10.37,2013-04-23 01:29:00,
2013-04-23 02:34:00,43.9,39.7,29.25,NNW,338,10.9,12.7,85,0.00,,OVC,0.00,WeatherDisplay:10.37,2013-04-23 01:34:00,
2013-04-23 02:39:00,43.9,39.7,29.25,WSW,248,10.1,12.7,85,0.00,,OVC,0.00,WeatherDisplay:10.37,2013-04-23 01:39:00,
2013-04-23 02:44:00,43.9,39.7,29.25,WSW,248,12.1,16.1,85,0.00,,OVC,0.00,WeatherDisplay:10.37,2013-04-23 01:44:00,
2013-04-23 02:49:00,43.9,39.4,29.25,SW,225,8.3,17.3,84,0.00,,OVC,0.00,WeatherDisplay:10.37,2013-04-23 01:49:00,
2013-04-23 02:54:00,43.9,39.4,29.26,West,270,18.0,20.7,84,0.00,,OVC,0.00,WeatherDisplay:10.37,2013-04-23 01:54:00,
2013-04-23 02:59:00,43.9,39.4,29.26,West,270,9.6,15.6,84,0.00,,OVC,0.00,WeatherDisplay:10.37,2013-04-23 01:59:00,
2013-04-23 03:04:00,43.9,39.4,29.26,SW,225,15.8,19.6,84,0.00,,OVC,0.00,WeatherDisplay:10.37,2013-04-23 02:04:00,
2013-04-23 03:09:00,43.9,39.4,29.26,WNW,292,22.3,22.3,84,0.00,,OVC,0.00,WeatherDisplay:10.37,2013-04-23 02:09:00,
2013-04-23 03:14:00,43.9,39.4,29.26,WNW,292,16.0,20.7,84,0.00,,OVC,0.00,WeatherDisplay:10.37,2013-04-23 02:14:00,
2013-04-23 03:19:00,43.9,39.4,29.25,West,270,12.2,19.4,84,0.00,,OVC,0.00,WeatherDisplay:10.37,2013-04-23 02:19:00,
2013-04-23 03:24:00,43.9,39.4,29.25,WSW,248,10.4,10.4,84,0.00,,OVC,0.00,WeatherDisplay:10.37,2013-04-23 02:24:00,
2013-04-23 03:29:00,43.7,39.2,29.25,WSW,248,15.4,15.4,84,0.00,,OVC,0.00,WeatherDisplay:10.37,2013-04-23 02:29:00,
2013-04-23 03:34:00,43.7,39.2,29.25,West,270,5.8,11.5,84,0.00,,OVC,0.00,WeatherDisplay:10.37,2013-04-23 02:34:00,
2013-04-23 03:39:00,43.7,39.2,29.26,SW,225,17.3,17.3,84,0.00,,OVC,0.00,WeatherDisplay:10.37,2013-04-23 02:39:00,
2013-04-23 03:44:00,43.9,39.7,29.26,SSW,202,7.6,8.1,85,0.00,,OVC,0.00,WeatherDisplay:10.37,2013-04-23 02:44:00,
2013-04-23 03:49:00,43.9,39.7,29.26,West,270,14.4,15.0,85,0.00,,OVC,0.00,WeatherDisplay:10.37,2013-04-23 02:49:00,
2013-04-23 03:54:00,44.1,39.5,29.27,WSW,248,10.9,17.3,84,0.00,,OVC,0.00,WeatherDisplay:10.37,2013-04-23 02:54:00,
2013-04-23 03:59:00,44.1,39.5,29.27,WNW,292,15.4,15.9,84,0.00,,OVC,0.00,WeatherDisplay:10.37,2013-04-23 02:59:00,
2013-04-23 04:04:00,44.1,39.5,29.27,WNW,292,15.5,16.1,84,0.00,,OVC,0.00,WeatherDisplay:10.37,2013-04-23 03:04:00,
2013-04-23 04:09:00,44.1,39.5,29.27,South,180,10.7,15.0,84,0.00,,OVC,0.00,WeatherDisplay:10.37,2013-04-23 03:09:00,
2013-04-23 04:14:00,44.1,39.8,29.27,West,270,6.3,11.5,85,0.00,,OVC,0.00,WeatherDisplay:10.37,2013-04-23 03:14:00,
2013-04-23 04:19:00,44.1,39.8,29.27,WSW,248,4.3,10.7,85,0.00,,OVC,0.00,WeatherDisplay:10.37,2013-04-23 03:19:00,
2013-04-23 04:25:00,44.1,39.8,29.28,WSW,248,7.2,9.2,85,0.00,,OVC,0.00,WeatherDisplay:10.37,2013-04-23 03:25:00,
2013-04-23 04:30:00,44.2,40.0,29.28,West,270,6.1,6.9,85,0.00,,OVC,0.00,WeatherDisplay:10.37,2013-04-23 03:30:00,
2013-04-23 04:35:00,44.2,40.0,29.28,SW,225,5.3,15.0,85,0.00,,OVC,0.00,WeatherDisplay:10.37,2013-04-23 03:35:00,
2013-04-23 04:40:00,44.2,40.0,29.28,WSW,248,5.6,14.1,85,0.00,,OVC,0.00,WeatherDisplay:10.37,2013-04-23 03:40:00,
2013-04-23 04:45:00,44.2,40.0,29.29,SSW,202,11.4,11.5,85,0.00,,OVC,0.00,WeatherDisplay:10.37,2013-04-23 03:45:00,
2013-04-23 04:50:00,43.9,39.7,29.29,West,270,8.0,8.0,85,0.00,,OVC,0.00,WeatherDisplay:10.37,2013-04-23 03:50:00,
2013-04-23 04:55:00,43.9,40.0,29.29,WNW,292,6.7,16.1,86,0.00,,OVC,0.00,WeatherDisplay:10.37,2013-04-23 03:55:00,
2013-04-23 05:00:00,43.5,39.6,29.29,West,270,14.0,15.0,86,0.00,,OVC,0.00,WeatherDisplay:10.37,2013-04-23 04:00:00,
2013-04-23 05:01:00,43.5,39.6,29.29,West,270,14.0,15.0,86,0.00,,OVC,0.00,WeatherDisplay:10.37,2013-04-23 04:01:00,
2013-04-23 05:02:00,43.5,39.6,29.29,West,270,14.0,14.0,86,0.00,,OVC,0.00,WeatherDisplay:10.37,2013-04-23 04:02:00,
2013-04-23 05:07:00,43.3,39.4,29.29,WSW,248,15.4,15.4,86,0.00,,OVC,0.00,WeatherDisplay:10.37,2013-04-23 04:07:00,
2013-04-23 05:12:00,43.3,39.4,29.29,South,180,8.4,9.2,86,0.00,,OVC,0.00,WeatherDisplay:10.37,2013-04-23 04:12:00,
2013-04-23 05:17:00,43.3,39.4,29.29,SSW,202,11.8,11.8,86,0.00,,OVC,0.00,WeatherDisplay:10.37,2013-04-23 04:17:00,
2013-04-23 05:22:00,43.3,39.4,29.29,WSW,248,7.7,8.1,86,0.00,,OVC,0.00,WeatherDisplay:10.37,2013-04-23 04:22:00,
2013-04-23 05:27:00,43.3,39.7,29.28,WSW,248,4.3,4.3,87,0.00,,OVC,0.00,WeatherDisplay:10.37,2013-04-23 04:27:00,
2013-04-23 05:32:00,43.3,39.7,29.28,West,270,10.0,13.8,87,0.00,,OVC,0.00,WeatherDisplay:10.37,2013-04-23 04:32:00,
2013-04-23 05:37:00,43.3,39.7,29.29,NW,315,13.8,13.8,87,0.00,,OVC,0.00,WeatherDisplay:10.37,2013-04-23 04:37:00,
2013-04-23 05:42:00,43.3,39.7,29.29,SW,225,11.3,15.0,87,0.00,,OVC,0.00,WeatherDisplay:10.37,2013-04-23 04:42:00,
2013-04-23 05:47:00,43.3,39.7,29.29,SW,225,16.1,16.1,87,0.00,,OVC,0.00,WeatherDisplay:10.37,2013-04-23 04:47:00,
2013-04-23 05:52:00,43.5,40.2,29.29,SW,225,7.5,12.7,88,0.00,,OVC,0.00,WeatherDisplay:10.37,2013-04-23 04:52:00,
2013-04-23 05:57:00,43.5,40.2,29.29,NNW,338,15.0,15.0,88,0.00,,OVC,0.00,WeatherDisplay:10.37,2013-04-23 04:57:00,
2013-04-23 06:02:00,43.5,40.2,29.29,West,270,10.1,10.1,88,0.00,,OVC,0.00,WeatherDisplay:10.37,2013-04-23 05:02:00,
2013-04-23 06:07:00,43.3,40.0,29.29,West,270,12.7,17.3,88,0.00,,OVC,0.00,WeatherDisplay:10.37,2013-04-23 05:07:00,
2013-04-23 06:12:00,43.3,40.0,29.30,WSW,248,17.0,20.7,88,0.00,,OVC,0.00,WeatherDisplay:10.37,2013-04-23 05:12:00,
2013-04-23 06:17:00,43.3,40.0,29.29,SW,225,10.5,10.5,88,0.00,,OVC,0.00,WeatherDisplay:10.37,2013-04-23 05:17:00,
2013-04-23 06:22:00,43.3,40.0,29.30,WSW,248,14.6,16.1,88,0.00,,OVC,0.00,WeatherDisplay:10.37,2013-04-23 05:22:00,
2013-04-23 06:27:00,43.5,40.2,29.29,WSW,248,9.7,10.4,88,0.00,,OVC,0.00,WeatherDisplay:10.37,2013-04-23 05:27:00,
2013-04-23 06:32:00,43.3,40.0,29.30,SW,225,12.3,12.7,88,0.00,,OVC,0.00,WeatherDisplay:10.37,2013-04-23 05:32:00,
2013-04-23 06:37:00,43.5,40.2,29.30,SSW,202,15.4,15.4,88,0.00,,OVC,0.00,WeatherDisplay:10.37,2013-04-23 05:37:00,
2013-04-23 06:42:00,43.7,40.4,29.30,WSW,248,5.9,10.4,88,0.00,,OVC,0.00,WeatherDisplay:10.37,2013-04-23 05:42:00,
2013-04-23 06:47:00,43.7,40.4,29.30,West,270,11.2,13.8,88,0.00,,OVC,0.00,WeatherDisplay:10.37,2013-04-23 05:47:00,
2013-04-23 06:52:00,43.7,40.4,29.30,ESE,112,16.2,18.4,88,0.00,,OVC,0.00,WeatherDisplay:10.37,2013-04-23 05:52:00,
2013-04-23 06:57:00,43.7,40.4,29.32,SSW,202,13.9,13.9,88,0.00,,OVC,0.00,WeatherDisplay:10.37,2013-04-23 05:57:00,
2013-04-23 07:02:00,43.9,40.3,29.31,West,270,16.5,16.5,87,0.00,,OVC,0.00,WeatherDisplay:10.37,2013-04-23 06:02:00,
2013-04-23 07:07:00,43.9,40.3,29.32,WSW,248,14.9,26.5,87,0.00,,OVC,0.00,WeatherDisplay:10.37,2013-04-23 06:07:00,
2013-04-23 07:12:00,44.1,40.4,29.32,West,270,11.6,11.6,87,0.00,,OVC,0.00,WeatherDisplay:10.37,2013-04-23 06:12:00,
2013-04-23 07:17:00,44.1,40.4,29.32,West,270,6.6,15.0,87,0.00,,OVC,0.00,WeatherDisplay:10.37,2013-04-23 06:17:00,
2013-04-23 07:22:00,44.1,40.4,29.32,SW,225,9.7,11.5,87,0.00,,OVC,0.00,WeatherDisplay:10.37,2013-04-23 06:22:00,
2013-04-23 07:27:00,44.2,40.6,29.32,SW,225,18.1,18.1,87,0.00,,OVC,0.00,WeatherDisplay:10.37,2013-04-23 06:27:00,
2013-04-23 07:32:00,44.2,40.6,29.32,WSW,248,14.4,15.0,87,0.00,,OVC,0.00,WeatherDisplay:10.37,2013-04-23 06:32:00,
2013-04-23 07:37:00,44.2,40.6,29.33,WNW,292,8.3,8.3,87,0.00,,OVC,0.00,WeatherDisplay:10.37,2013-04-23 06:37:00,
2013-04-23 07:42:00,44.8,41.1,29.33,SW,225,17.9,21.9,87,0.00,,OVC,0.00,WeatherDisplay:10.37,2013-04-23 06:42:00,
2013-04-23 07:47:00,45.0,41.3,29.33,WSW,248,19.8,19.8,87,0.00,,OVC,0.00,WeatherDisplay:10.37,2013-04-23 06:47:00,
2013-04-23 07:52:00,45.1,41.2,29.33,WSW,248,16.1,17.3,86,0.00,,OVC,0.00,WeatherDisplay:10.37,2013-04-23 06:52:00,
2013-04-23 07:57:00,45.0,41.0,29.34,WSW,248,12.3,17.3,86,0.00,,OVC,0.00,WeatherDisplay:10.37,2013-04-23 06:57:00,
2013-04-23 08:02:00,44.8,40.5,29.34,WSW,248,26.4,27.6,85,0.00,,OVC,0.00,WeatherDisplay:10.37,2013-04-23 07:02:00,
2013-04-23 08:07:00,44.4,40.2,29.35,WSW,248,8.4,19.6,85,0.00,,OVC,0.00,WeatherDisplay:10.37,2013-04-23 07:07:00,
2013-04-23 08:12:00,44.6,40.4,29.34,WSW,248,10.9,10.9,85,0.00,,OVC,0.00,WeatherDisplay:10.37,2013-04-23 07:12:00,
2013-04-23 08:17:00,44.4,40.2,29.35,West,270,15.4,18.4,85,0.00,,OVC,0.00,WeatherDisplay:10.37,2013-04-23 07:17:00,
2013-04-23 08:22:00,44.4,40.2,29.34,SW,225,17.4,18.4,85,0.00,,OVC,0.00,WeatherDisplay:10.37,2013-04-23 07:22:00,
2013-04-23 08:27:00,45.1,40.6,29.34,West,270,19.2,19.2,84,0.00,,OVC,0.00,WeatherDisplay:10.37,2013-04-23 07:27:00,
2013-04-23 08:32:00,45.3,40.8,29.35,SSE,158,9.6,12.7,84,0.00,,OVC,0.00,WeatherDisplay:10.37,2013-04-23 07:32:00,
2013-04-23 08:37:00,45.5,40.6,29.35,WSW,248,14.3,16.1,83,0.00,,OVC,0.00,WeatherDisplay:10.37,2013-04-23 07:37:00,
2013-04-23 08:42:00,46.0,41.2,29.35,WSW,248,14.7,18.4,83,0.00,,OVC,0.00,WeatherDisplay:10.37,2013-04-23 07:42:00,
2013-04-23 08:47:00,46.0,41.2,29.35,WSW,248,8.8,15.0,83,0.00,,OVC,0.00,WeatherDisplay:10.37,2013-04-23 07:47:00,
2013-04-23 08:52:00,46.2,41.0,29.35,WSW,248,6.3,13.8,82,0.00,,OVC,0.00,WeatherDisplay:10.37,2013-04-23 07:52:00,
2013-04-23 08:57:00,46.2,40.7,29.35,SW,225,13.2,13.2,81,0.00,,OVC,0.00,WeatherDisplay:10.37,2013-04-23 07:57:00,
2013-04-23 09:02:00,46.2,40.7,29.36,West,270,14.1,16.1,81,0.00,,OVC,0.00,WeatherDisplay:10.37,2013-04-23 08:02:00,
2013-04-23 09:07:00,46.0,40.5,29.36,SW,225,18.2,18.2,81,0.00,,OVC,0.00,WeatherDisplay:10.37,2013-04-23 08:07:00,
2013-04-23 09:12:00,46.0,40.5,29.36,West,270,18.4,18.4,81,0.00,,OVC,0.00,WeatherDisplay:10.37,2013-04-23 08:12:00,
2013-04-23 09:17:00,46.0,40.2,29.36,West,270,13.6,18.4,80,0.00,,OVC,0.00,WeatherDisplay:10.37,2013-04-23 08:17:00,
2013-04-23 09:22:00,46.2,40.4,29.37,West,270,13.4,13.8,80,0.00,,OVC,0.00,WeatherDisplay:10.37,2013-04-23 08:22:00,
2013-04-23 09:27:00,46.6,40.7,29.36,SW,225,11.9,12.7,80,0.00,,OVC,0.00,WeatherDisplay:10.37,2013-04-23 08:27:00,
2013-04-23 09:32:00,46.8,40.9,29.36,WSW,248,11.4,15.0,80,0.00,,OVC,0.00,WeatherDisplay:10.37,2013-04-23 08:32:00,
2013-04-23 09:37:00,47.1,41.3,29.37,SW,225,17.8,17.8,80,0.00,,OVC,0.00,WeatherDisplay:10.37,2013-04-23 08:37:00,
2013-04-23 09:42:00,47.5,41.0,29.38,SSW,202,15.7,16.1,78,0.00,,OVC,0.00,WeatherDisplay:10.37,2013-04-23 08:42:00,
2013-04-23 09:47:00,47.6,41.1,29.38,WSW,248,13.8,13.8,78,0.00,CLR,OVC,0.00,WeatherDisplay:10.37,2013-04-23 08:47:00,
2013-04-23 09:52:00,49.8,42.9,29.38,West,270,15.7,16.1,77,0.00,CLR,OVC,0.00,WeatherDisplay:10.37,2013-04-23 08:52:00,
2013-04-23 09:57:00,52.0,43.9,29.39,West,270,21.4,21.9,74,0.00,CLR,OVC,0.00,WeatherDisplay:10.37,2013-04-23 08:57:00,
2013-04-23 10:02:00,52.2,43.4,29.39,West,270,22.1,22.1,72,0.00,CLR,OVC,0.00,WeatherDisplay:10.37,2013-04-23 09:02:00,
2013-04-23 10:07:00,51.4,42.3,29.39,SW,225,14.3,14.3,71,0.00,CLR,OVC,0.00,WeatherDisplay:10.37,2013-04-23 09:07:00,
2013-04-23 10:12:00,50.5,41.5,29.39,WSW,248,7.5,18.4,71,0.00,CLR,OVC,0.00,WeatherDisplay:10.37,2013-04-23 09:12:00,
2013-04-23 10:17:00,50.4,41.7,29.39,WSW,248,9.4,21.9,72,0.00,CLR,OVC,0.00,WeatherDisplay:10.37,2013-04-23 09:17:00,
2013-04-23 10:22:00,50.7,42.0,29.39,North,0,14.8,16.1,72,0.00,CLR,OVC,0.00,WeatherDisplay:10.37,2013-04-23 09:22:00,
2013-04-23 10:27:00,51.3,42.5,29.39,SSW,202,17.3,17.3,72,0.00,CLR,OVC,0.00,WeatherDisplay:10.37,2013-04-23 09:27:00,
2013-04-23 10:32:00,51.4,42.3,29.39,West,270,17.5,19.6,71,0.00,CLR,OVC,0.00,WeatherDisplay:10.37,2013-04-23 09:32:00,
2013-04-23 10:37:00,50.9,41.8,29.41,WSW,248,7.4,8.1,71,0.00,CLR,OVC,0.00,WeatherDisplay:10.37,2013-04-23 09:37:00,
2013-04-23 10:42:00,50.2,41.1,29.41,South,180,5.4,5.8,71,0.00,CLR,OVC,0.00,WeatherDisplay:10.37,2013-04-23 09:42:00,
2013-04-23 10:47:00,49.6,41.0,29.41,West,270,17.0,17.0,72,0.00,CLR,OVC,0.00,WeatherDisplay:10.37,2013-04-23 09:47:00,
2013-04-23 10:52:00,49.6,41.3,29.40,WNW,292,18.2,19.6,73,0.00,CLR,OVC,0.00,WeatherDisplay:10.37,2013-04-23 09:52:00,
2013-04-23 10:57:00,49.6,41.0,29.41,SW,225,11.7,11.7,72,0.00,CLR,OVC,0.00,WeatherDisplay:10.37,2013-04-23 09:57:00,
2013-04-23 11:02:00,49.1,40.8,29.42,WSW,248,11.2,17.3,73,0.00,CLR,OVC,0.00,WeatherDisplay:10.37,2013-04-23 10:02:00,
2013-04-23 11:07:00,48.9,41.0,29.41,West,270,5.8,11.5,74,0.00,CLR,OVC,0.00,WeatherDisplay:10.37,2013-04-23 10:07:00,
2013-04-23 11:12:00,48.9,42.0,29.42,WNW,292,14.9,15.0,77,0.00,CLR,OVC,0.00,WeatherDisplay:10.37,2013-04-23 10:12:00,
2013-04-23 11:17:00,49.6,42.4,29.42,NW,315,12.1,13.0,76,0.00,CLR,OVC,0.00,WeatherDisplay:10.37,2013-04-23 10:17:00,
2013-04-23 11:22:00,49.8,42.6,29.42,SW,225,4.6,11.5,76,0.00,CLR,OVC,0.00,WeatherDisplay:10.37,2013-04-23 10:22:00,
2013-04-23 11:27:00,49.6,42.4,29.42,WSW,248,7.8,7.8,76,0.00,CLR,OVC,0.00,WeatherDisplay:10.37,2013-04-23 10:27:00,
2013-04-23 11:32:00,49.6,42.4,29.42,SW,225,10.3,10.4,76,0.00,CLR,OVC,0.00,WeatherDisplay:10.37,2013-04-23 10:32:00,
2013-04-23 11:37:00,49.6,42.0,29.42,SW,225,16.6,18.4,75,0.00,CLR,OVC,0.00,WeatherDisplay:10.37,2013-04-23 10:37:00,
2013-04-23 11:42:00,49.6,41.7,29.42,West,270,6.8,10.4,74,0.00,CLR,OVC,0.00,WeatherDisplay:10.37,2013-04-23 10:42:00,
2013-04-23 11:47:00,50.7,42.4,29.42,SW,225,18.0,18.0,73,0.00,CLR,OVC,0.00,WeatherDisplay:10.37,2013-04-23 10:47:00,
2013-04-23 11:52:00,50.7,42.0,29.42,WSW,248,17.9,18.4,72,0.00,CLR,OVC,0.00,WeatherDisplay:10.37,2013-04-23 10:52:00,
2013-04-23 11:57:00,50.7,42.0,29.43,WNW,292,11.5,17.3,72,0.00,CLR,OVC,0.00,WeatherDisplay:10.37,2013-04-23 10:57:00,
2013-04-23 12:02:00,50.7,42.0,29.43,WSW,248,17.0,20.7,72,0.00,CLR,OVC,0.00,WeatherDisplay:10.37,2013-04-23 11:02:00,
2013-04-23 12:07:00,50.7,42.4,29.42,WSW,248,11.3,11.5,73,0.00,CLR,OVC,0.00,WeatherDisplay:10.37,2013-04-23 11:07:00,
2013-04-23 12:12:00,50.7,42.0,29.43,WSW,248,5.9,10.4,72,0.00,CLR,OVC,0.00,WeatherDisplay:10.37,2013-04-23 11:12:00,
2013-04-23 12:17:00,50.7,42.0,29.43,WSW,248,14.3,19.0,72,0.00,CLR,OVC,0.00,WeatherDisplay:10.37,2013-04-23 11:17:00,
2013-04-23 12:22:00,50.4,41.7,29.44,WSW,248,20.0,20.7,72,0.00,CLR,OVC,0.00,WeatherDisplay:10.37,2013-04-23 11:22:00,
2013-04-23 12:27:00,50.4,42.0,29.44,West,270,10.8,11.2,73,0.00,CLR,OVC,0.00,WeatherDisplay:10.37,2013-04-23 11:27:00,
2013-04-23 12:32:00,50.4,42.0,29.44,NW,315,10.7,10.7,73,0.00,CLR,OVC,0.00,WeatherDisplay:10.37,2013-04-23 11:32:00,
2013-04-23 12:37:00,50.5,42.2,29.44,West,270,13.8,19.6,73,0.00,CLR,OVC,0.00,WeatherDisplay:10.37,2013-04-23 11:37:00,
2013-04-23 12:42:00,50.7,42.4,29.43,WSW,248,15.7,17.3,73,0.00,CLR,OVC,0.00,WeatherDisplay:10.37,2013-04-23 11:42:00,
2013-04-23 12:47:00,51.1,42.4,29.43,SSW,202,12.2,12.7,72,0.00,CLR,OVC,0.00,WeatherDisplay:10.37,2013-04-23 11:47:00,
2013-04-23 12:52:00,51.6,42.9,29.44,WSW,248,10.6,15.0,72,0.00,CLR,OVC,0.00,WeatherDisplay:10.37,2013-04-23 11:52:00,
2013-04-23 12:57:00,51.6,42.9,29.44,WNW,292,14.6,15.0,72,0.00,CLR,OVC,0.00,WeatherDisplay:10.37,2013-04-23 11:57:00,
2013-04-23 13:02:00,51.4,42.7,29.44,WSW,248,12.5,16.1,72,0.00,CLR,OVC,0.00,WeatherDisplay:10.37,2013-04-23 12:02:00,
2013-04-23 13:07:00,50.9,41.8,29.45,WSW,248,8.1,15.0,71,0.00,CLR,OVC,0.00,WeatherDisplay:10.37,2013-04-23 12:07:00,
2013-04-23 13:12:00,50.7,41.7,29.45,NW,315,8.0,18.4,71,0.00,CLR,OVC,0.00,WeatherDisplay:10.37,2013-04-23 12:12:00,
2013-04-23 13:17:00,50.7,41.7,29.45,WSW,248,8.3,14.3,71,0.00,CLR,OVC,0.00,WeatherDisplay:10.37,2013-04-23 12:17:00,
2013-04-23 13:22:00,50.5,41.8,29.45,SW,225,5.6,5.8,72,0.00,CLR,OVC,0.00,WeatherDisplay:10.37,2013-04-23 12:22:00,
2013-04-23 13:27:00,50.7,42.4,29.45,West,270,9.2,9.2,73,0.00,CLR,OVC,0.00,WeatherDisplay:10.37,2013-04-23 12:27:00,
2013-04-23 13:32:00,50.7,41.3,29.45,SW,225,13.1,15.0,70,0.00,CLR,OVC,0.00,WeatherDisplay:10.37,2013-04-23 12:32:00,
2013-04-23 13:37:00,50.7,41.3,29.44,West,270,4.0,9.2,70,0.00,CLR,OVC,0.00,WeatherDisplay:10.37,2013-04-23 12:37:00,
2013-04-23 13:42:00,51.1,41.6,29.44,WSW,248,9.8,10.4,70,0.00,CLR,OVC,0.00,WeatherDisplay:10.37,2013-04-23 12:42:00,
2013-04-23 13:47:00,50.9,41.1,29.46,WNW,292,18.1,20.7,69,0.00,CLR,OVC,0.00,WeatherDisplay:10.37,2013-04-23 12:47:00,
2013-04-23 13:52:00,50.9,41.5,29.47,West,270,17.0,17.0,70,0.00,CLR,OVC,0.00,WeatherDisplay:10.37,2013-04-23 12:52:00,
2013-04-23 13:57:00,50.9,41.5,29.47,WSW,248,12.2,13.8,70,0.00,CLR,OVC,0.00,WeatherDisplay:10.37,2013-04-23 12:57:00,
2013-04-23 14:03:00,50.9,41.8,29.47,NW,315,9.2,10.4,71,0.00,CLR,OVC,0.00,WeatherDisplay:10.37,2013-04-23 13:03:00,
2013-04-23 14:08:00,50.7,41.7,29.47,WSW,248,13.9,16.1,71,0.00,CLR,OVC,0.00,WeatherDisplay:10.37,2013-04-23 13:08:00,
2013-04-23 14:13:00,50.7,41.7,29.47,SW,225,16.6,19.6,71,0.00,CLR,OVC,0.00,WeatherDisplay:10.37,2013-04-23 13:13:00,
2013-04-23 14:18:00,50.7,41.7,29.47,NW,315,16.4,16.4,71,0.00,CLR,OVC,0.00,WeatherDisplay:10.37,2013-04-23 13:18:00,
2013-04-23 14:23:00,50.7,41.3,29.47,West,270,14.4,14.4,70,0.00,CLR,OVC,0.00,WeatherDisplay:10.37,2013-04-23 13:23:00,
2013-04-23 14:28:00,50.7,41.3,29.48,WSW,248,9.3,9.3,70,0.00,CLR,OVC,0.00,WeatherDisplay:10.37,2013-04-23 13:28:00,
2013-04-23 14:33:00,50.7,41.3,29.48,WSW,248,15.2,15.2,70,0.00,CLR,OVC,0.00,WeatherDisplay:10.37,2013-04-23 13:33:00,
2013-04-23 14:38:00,51.3,41.8,29.48,SW,225,11.6,11.6,70,0.00,CLR,OVC,0.00,WeatherDisplay:10.37,2013-04-23 13:38:00,
2013-04-23 14:43:00,51.3,41.4,29.48,ENE,68,9.9,11.5,69,0.00,CLR,OVC,0.00,WeatherDisplay:10.37,2013-04-23 13:43:00,
2013-04-23 14:48:00,51.4,41.2,29.48,West,270,14.9,15.0,68,0.00,CLR,OVC,0.00,WeatherDisplay:10.37,2013-04-23 13:48:00,
2013-04-23 14:53:00,51.3,41.1,29.48,West,270,12.7,12.7,68,0.00,CLR,OVC,0.00,WeatherDisplay:10.37,2013-04-23 13:53:00,
2013-04-23 14:58:00,51.1,40.9,29.48,WSW,248,15.4,15.4,68,0.00,CLR,OVC,0.00,WeatherDisplay:10.37,2013-04-23 13:58:00,
2013-04-23 15:03:00,51.4,41.2,29.48,WSW,248,17.6,20.7,68,0.00,CLR,OVC,0.00,WeatherDisplay:10.37,2013-04-23 14:03:00,
2013-04-23 15:08:00,51.4,41.2,29.48,WSW,248,17.6,17.6,68,0.00,CLR,OVC,0.00,WeatherDisplay:10.37,2013-04-23 14:08:00,
2013-04-23 15:13:00,51.4,41.2,29.48,WSW,248,11.5,17.4,68,0.00,CLR,OVC,0.00,WeatherDisplay:10.37,2013-04-23 14:13:00,
2013-04-23 15:18:00,51.4,40.5,29.48,West,270,16.3,16.3,66,0.00,CLR,OVC,0.00,WeatherDisplay:10.37,2013-04-23 14:18:00,
2013-04-23 15:23:00,51.6,40.6,29.48,WSW,248,11.3,18.4,66,0.00,CLR,OVC,0.00,WeatherDisplay:10.37,2013-04-23 14:23:00,
2013-04-23 15:28:00,51.6,40.6,29.48,West,270,17.3,17.3,66,0.00,CLR,OVC,0.00,WeatherDisplay:10.37,2013-04-23 14:28:00,
2013-04-23 15:33:00,51.1,40.5,29.49,West,270,18.7,19.6,67,0.00,CLR,OVC,0.00,WeatherDisplay:10.37,2013-04-23 14:33:00,
2013-04-23 15:38:00,50.7,40.2,29.49,SW,225,13.1,13.1,67,0.00,CLR,OVC,0.00,WeatherDisplay:10.37,2013-04-23 14:38:00,
2013-04-23 15:43:00,50.4,39.8,29.50,SW,225,11.4,12.7,67,0.00,CLR,OVC,0.00,WeatherDisplay:10.37,2013-04-23 14:43:00,
2013-04-23 15:48:00,50.4,39.8,29.50,WNW,292,12.0,12.0,67,0.00,CLR,OVC,0.00,WeatherDisplay:10.37,2013-04-23 14:48:00,
2013-04-23 15:53:00,50.4,41.3,29.50,West,270,12.1,12.1,71,0.00,CLR,OVC,0.00,WeatherDisplay:10.37,2013-04-23 14:53:00,
2013-04-23 15:58:00,50.4,41.3,29.50,WSW,248,12.5,12.5,71,0.00,CLR,OVC,0.00,WeatherDisplay:10.37,2013-04-23 14:58:00,
2013-04-23 16:03:00,50.7,40.9,29.50,SW,225,16.9,17.3,69,0.00,CLR,OVC,0.00,WeatherDisplay:10.37,2013-04-23 15:03:00,
2013-04-23 16:08:00,50.7,40.9,29.50,South,180,12.6,19.7,69,0.00,CLR,OVC,0.00,WeatherDisplay:10.37,2013-04-23 15:08:00,
2013-04-23 16:13:00,50.7,40.9,29.49,South,180,17.8,19.6,69,0.00,CLR,OVC,0.00,WeatherDisplay:10.37,2013-04-23 15:13:00,
2013-04-23 16:18:00,50.7,40.9,29.50,SW,225,11.8,11.8,69,0.00,CLR,OVC,0.00,WeatherDisplay:10.37,2013-04-23 15:18:00,
2013-04-23 16:23:00,50.7,40.9,29.49,South,180,13.0,16.1,69,0.00,CLR,OVC,0.00,WeatherDisplay:10.37,2013-04-23 15:23:00,
2013-04-23 16:28:00,50.9,40.7,29.50,WSW,248,10.3,12.7,68,0.00,CLR,OVC,0.00,WeatherDisplay:10.37,2013-04-23 15:28:00,
2013-04-23 16:33:00,50.7,40.2,29.50,West,270,9.8,12.7,67,0.00,CLR,OVC,0.00,WeatherDisplay:10.37,2013-04-23 15:33:00,
2013-04-23 16:38:00,50.9,40.3,29.50,West,270,16.4,21.9,67,0.00,CLR,OVC,0.00,WeatherDisplay:10.37,2013-04-23 15:38:00,
2013-04-23 16:43:00,50.9,40.3,29.51,WSW,248,15.9,17.3,67,0.00,CLR,OVC,0.00,WeatherDisplay:10.37,2013-04-23 15:43:00,
2013-04-23 16:48:00,50.9,40.3,29.51,West,270,10.4,12.7,67,0.00,CLR,OVC,0.00,WeatherDisplay:10.37,2013-04-23 15:48:00,
2013-04-23 16:53:00,50.7,40.2,29.51,WSW,248,10.2,12.7,67,0.00,CLR,OVC,0.00,WeatherDisplay:10.37,2013-04-23 15:53:00,
2013-04-23 16:58:00,50.7,40.2,29.51,WSW,248,20.2,20.7,67,0.00,CLR,OVC,0.00,WeatherDisplay:10.37,2013-04-23 15:58:00,
2013-04-23 17:03:00,50.7,40.2,29.50,SSW,202,17.4,17.4,67,0.00,CLR,OVC,0.00,WeatherDisplay:10.37,2013-04-23 16:03:00,
2013-04-23 17:08:00,50.7,40.2,29.50,NW,315,11.5,11.5,67,0.00,CLR,OVC,0.00,WeatherDisplay:10.37,2013-04-23 16:08:00,
2013-04-23 17:13:00,50.7,40.2,29.50,SSW,202,8.0,11.5,67,0.00,CLR,OVC,0.00,WeatherDisplay:10.37,2013-04-23 16:13:00,
2013-04-23 17:18:00,50.7,40.2,29.51,WNW,292,20.6,20.7,67,0.00,CLR,OVC,0.00,WeatherDisplay:10.37,2013-04-23 16:18:00,
2013-04-23 17:23:00,50.7,39.8,29.50,WSW,248,17.1,19.6,66,0.00,CLR,OVC,0.00,WeatherDisplay:10.37,2013-04-23 16:23:00,
2013-04-23 17:28:00,50.7,39.8,29.50,WSW,248,15.3,15.3,66,0.00,CLR,OVC,0.00,WeatherDisplay:10.37,2013-04-23 16:28:00,
2013-04-23 17:34:00,50.2,39.3,29.51,SW,225,12.5,18.4,66,0.00,CLR,OVC,0.00,WeatherDisplay:10.37,2013-04-23 16:34:00,
2013-04-23 17:39:00,50.4,39.8,29.51,WSW,248,13.4,13.8,67,0.00,CLR,OVC,0.00,WeatherDisplay:10.37,2013-04-23 16:39:00,
2013-04-23 17:44:00,50.4,39.8,29.51,WSW,248,13.4,13.8,67,0.00,CLR,OVC,0.00,WeatherDisplay:10.37,2013-04-23 16:44:00,
2013-04-23 17:49:00,50.2,39.6,29.51,SW,225,18.8,19.6,67,0.00,CLR,OVC,0.00,WeatherDisplay:10.37,2013-04-23 16:49:00,
2013-04-23 17:54:00,49.8,39.3,29.51,NNW,338,15.6,15.6,67,0.00,CLR,OVC,0.00,WeatherDisplay:10.37,2013-04-23 16:54:00,
2013-04-23 17:59:00,49.6,39.1,29.51,SSW,202,10.7,10.7,67,0.00,CLR,OVC,0.00,WeatherDisplay:10.37,2013-04-23 16:59:00,
2013-04-23 18:04:00,49.6,39.1,29.51,SSW,202,9.6,9.6,67,0.00,CLR,OVC,0.00,WeatherDisplay:10.37,2013-04-23 17:04:00,
2013-04-23 18:09:00,49.3,38.8,29.51,West,270,13.4,13.8,67,0.00,CLR,OVC,0.00,WeatherDisplay:10.37,2013-04-23 17:09:00,
2013-04-23 18:14:00,49.1,39.0,29.51,West,270,11.4,15.0,68,0.00,CLR,OVC,0.00,WeatherDisplay:10.37,2013-04-23 17:14:00,
2013-04-23 18:19:00,48.9,38.8,29.51,WSW,248,13.3,15.0,68,0.00,CLR,OVC,0.00,WeatherDisplay:10.37,2013-04-23 17:19:00,
2013-04-23 18:24:00,48.7,39.0,29.51,SW,225,15.6,19.6,69,0.00,CLR,OVC,0.00,WeatherDisplay:10.37,2013-04-23 17:24:00,
2013-04-23 18:29:00,48.4,39.0,29.51,SW,225,16.1,18.4,70,0.00,CLR,OVC,0.00,WeatherDisplay:10.37,2013-04-23 17:29:00,
2013-04-23 18:34:00,48.4,39.0,29.51,SW,225,16.1,18.4,70,0.00,CLR,OVC,0.00,WeatherDisplay:10.37,2013-04-23 17:34:00,
2013-04-23 18:39:00,48.4,39.0,29.51,WNW,292,10.7,10.7,70,0.00,CLR,OVC,0.00,WeatherDisplay:10.37,2013-04-23 17:39:00,
2013-04-23 18:44:00,48.2,38.9,29.51,WSW,248,17.1,17.1,70,0.00,CLR,OVC,0.00,WeatherDisplay:10.37,2013-04-23 17:44:00,
2013-04-23 18:49:00,48.2,38.9,29.51,WNW,292,5.5,15.0,70,0.00,CLR,OVC,0.00,WeatherDisplay:10.37,2013-04-23 17:49:00,
2013-04-23 18:54:00,48.0,38.7,29.51,SW,225,6.5,6.9,70,0.00,CLR,OVC,0.00,WeatherDisplay:10.37,2013-04-23 17:54:00,
2013-04-23 18:59:00,47.8,38.2,29.51,WSW,248,10.0,12.7,69,0.00,CLR,OVC,0.00,WeatherDisplay:10.37,2013-04-23 17:59:00,
2013-04-23 19:04:00,47.8,38.2,29.52,West,270,13.8,17.3,69,0.00,CLR,OVC,0.00,WeatherDisplay:10.37,2013-04-23 18:04:00,
2013-04-23 19:09:00,47.7,38.4,29.51,WSW,248,14.1,15.0,70,0.00,CLR,OVC,0.00,WeatherDisplay:10.37,2013-04-23 18:09:00,
2013-04-23 19:14:00,47.5,38.2,29.51,West,270,16.8,16.8,70,0.00,CLR,OVC,0.00,WeatherDisplay:10.37,2013-04-23 18:14:00,
2013-04-23 19:19:00,47.5,38.2,29.52,West,270,11.0,13.8,70,0.00,CLR,OVC,0.00,WeatherDisplay:10.37,2013-04-23 18:19:00,
2013-04-23 19:24:00,47.3,38.0,29.51,SSW,202,14.7,15.0,70,0.00,CLR,OVC,0.00,WeatherDisplay:10.37,2013-04-23 18:24:00,
2013-04-23 19:29:00,47.1,37.8,29.51,SW,225,20.1,20.1,70,0.00,CLR,OVC,0.00,WeatherDisplay:10.37,2013-04-23 18:29:00,
2013-04-23 19:34:00,47.1,37.8,29.51,SW,225,17.0,17.0,70,0.00,CLR,OVC,0.00,WeatherDisplay:10.37,2013-04-23 18:34:00,
2013-04-23 19:39:00,46.9,37.7,29.52,SSW,202,15.2,15.2,70,0.00,CLR,OVC,0.00,WeatherDisplay:10.37,2013-04-23 18:39:00,
2013-04-23 19:44:00,46.9,38.0,29.52,West,270,5.7,5.8,71,0.00,CLR,OVC,0.00,WeatherDisplay:10.37,2013-04-23 18:44:00,
2013-04-23 19:49:00,46.8,37.9,29.52,NW,315,14.8,15.0,71,0.00,CLR,OVC,0.00,WeatherDisplay:10.37,2013-04-23 18:49:00,
2013-04-23 19:54:00,46.6,37.7,29.52,West,270,18.4,18.4,71,0.00,CLR,OVC,0.00,WeatherDisplay:10.37,2013-04-23 18:54:00,
2013-04-23 19:59:00,46.6,37.7,29.52,West,270,12.9,12.9,71,0.00,CLR,OVC,0.00,WeatherDisplay:10.37,2013-04-23 18:59:00,
2013-04-23 20:04:00,46.6,37.7,29.52,WSW,248,10.1,18.4,71,0.00,CLR,OVC,0.00,WeatherDisplay:10.37,2013-04-23 19:04:00,
2013-04-23 20:09:00,46.2,37.7,29.52,WSW,248,10.0,10.4,72,0.00,CLR,OVC,0.00,WeatherDisplay:10.37,2013-04-23 19:09:00,
2013-04-23 20:14:00,46.2,37.7,29.52,SSW,202,15.3,15.3,72,0.00,CLR,OVC,0.00,WeatherDisplay:10.37,2013-04-23 19:14:00,
2013-04-23 20:19:00,46.2,37.7,29.54,SW,225,4.0,6.9,72,0.00,CLR,OVC,0.00,WeatherDisplay:10.37,2013-04-23 19:19:00,
2013-04-23 20:24:00,46.0,37.9,29.54,WSW,248,11.8,16.1,73,0.00,CLR,OVC,0.00,WeatherDisplay:10.37,2013-04-23 19:24:00,
2013-04-23 20:29:00,46.0,37.9,29.54,WSW,248,4.2,9.2,73,0.00,CLR,OVC,0.00,WeatherDisplay:10.37,2013-04-23 19:29:00,
2013-04-23 20:34:00,46.0,37.9,29.54,WSW,248,8.9,9.2,73,0.00,CLR,OVC,0.00,WeatherDisplay:10.37,2013-04-23 19:34:00,
2013-04-23 20:39:00,45.7,37.9,29.54,WSW,248,9.7,16.1,74,0.00,CLR,OVC,0.00,WeatherDisplay:10.37,2013-04-23 19:39:00,
2013-04-23 20:44:00,45.7,37.9,29.54,WSW,248,7.4,18.4,74,0.00,CLR,OVC,0.00,WeatherDisplay:10.37,2013-04-23 19:44:00,
2013-04-23 20:49:00,45.7,37.9,29.54,NW,315,12.3,12.7,74,0.00,CLR,OVC,0.00,WeatherDisplay:10.37,2013-04-23 19:49:00,
2013-04-23 20:54:00,45.7,38.2,29.53,WSW,248,7.9,15.0,75,0.00,CLR,OVC,0.00,WeatherDisplay:10.37,2013-04-23 19:54:00,
2013-04-23 20:59:00,45.5,38.0,29.54,SW,225,14.5,15.0,75,0.00,CLR,OVC,0.00,WeatherDisplay:10.37,2013-04-23 19:59:00,
2013-04-23 21:04:00,45.5,38.0,29.54,SSW,202,14.0,14.0,75,0.00,CLR,OVC,0.00,WeatherDisplay:10.37,2013-04-23 20:04:00,
2013-04-23 21:09:00,45.3,37.9,29.55,WSW,248,3.7,3.7,75,0.00,CLR,OVC,0.00,WeatherDisplay:10.37,2013-04-23 20:09:00,
2013-04-23 21:14:00,45.3,37.9,29.55,WSW,248,12.8,12.8,75,0.00,CLR,OVC,0.00,WeatherDisplay:10.37,2013-04-23 20:14:00,
2013-04-23 21:19:00,45.3,37.9,29.56,West,270,7.7,8.1,75,0.00,CLR,OVC,0.00,WeatherDisplay:10.37,2013-04-23 20:19:00,
2013-04-23 21:24:00,45.3,37.9,29.56,SW,225,5.5,9.2,75,0.00,CLR,OVC,0.00,WeatherDisplay:10.37,2013-04-23 20:24:00,
2013-04-23 21:29:00,45.3,37.9,29.55,WSW,248,7.8,9.2,75,0.00,CLR,OVC,0.00,WeatherDisplay:10.37,2013-04-23 20:29:00,
2013-04-23 21:34:00,45.3,37.9,29.55,WSW,248,9.7,13.8,75,0.00,CLR,OVC,0.00,WeatherDisplay:10.37,2013-04-23 20:34:00,
2013-04-23 21:39:00,45.3,37.9,29.55,WSW,248,5.3,8.1,75,0.00,CLR,OVC,0.00,WeatherDisplay:10.37,2013-04-23 20:39:00,
2013-04-23 21:44:00,45.1,37.7,29.55,SSE,158,8.5,8.5,75,0.00,CLR,OVC,0.00,WeatherDisplay:10.37,2013-04-23 20:44:00,
2013-04-23 21:49:00,45.0,37.5,29.55,SSW,202,6.0,6.0,75,0.00,CLR,OVC,0.00,WeatherDisplay:10.37,2013-04-23 20:49:00,
2013-04-23 21:54:00,44.8,38.0,29.55,SSW,202,8.6,11.5,77,0.00,CLR,OVC,0.00,WeatherDisplay:10.37,2013-04-23 20:54:00,
2013-04-23 21:59:00,44.4,37.7,29.55,SSW,202,7.6,9.2,77,0.00,CLR,OVC,0.00,WeatherDisplay:10.37,2013-04-23 20:59:00,
2013-04-23 22:04:00,44.2,37.5,29.55,SW,225,8.7,9.2,77,0.00,CLR,OVC,0.00,WeatherDisplay:10.37,2013-04-23 21:04:00,
2013-04-23 22:09:00,44.2,37.8,29.55,West,270,5.5,6.9,78,0.00,CLR,OVC,0.00,WeatherDisplay:10.37,2013-04-23 21:09:00,
2013-04-23 22:14:00,44.2,38.1,29.55,SW,225,10.1,10.1,79,0.00,CLR,OVC,0.00,WeatherDisplay:10.37,2013-04-23 21:14:00,
2013-04-23 22:19:00,44.2,38.1,29.55,SSW,202,6.3,6.3,79,0.00,CLR,OVC,0.00,WeatherDisplay:10.37,2013-04-23 21:19:00,
2013-04-23 22:24:00,44.2,38.1,29.55,South,180,9.5,12.7,79,0.00,CLR,OVC,0.00,WeatherDisplay:10.37,2013-04-23 21:24:00,
2013-04-23 22:29:00,44.4,38.3,29.55,South,180,8.4,13.8,79,0.00,CLR,OVC,0.00,WeatherDisplay:10.37,2013-04-23 21:29:00,
2013-04-23 22:34:00,44.4,38.3,29.55,SW,225,12.8,12.8,79,0.00,CLR,OVC,0.00,WeatherDisplay:10.37,2013-04-23 21:34:00,
2013-04-23 22:39:00,44.8,38.7,29.55,SSW,202,11.4,11.5,79,0.00,CLR,OVC,0.00,WeatherDisplay:10.37,2013-04-23 21:39:00,
2013-04-23 22:44:00,44.8,38.7,29.55,SW,225,9.0,13.8,79,0.00,CLR,OVC,0.00,WeatherDisplay:10.37,2013-04-23 21:44:00,
2013-04-23 22:49:00,45.0,38.8,29.55,South,180,13.0,13.8,79,0.00,CLR,OVC,0.00,WeatherDisplay:10.37,2013-04-23 21:49:00,
2013-04-23 22:54:00,45.0,38.8,29.55,SSW,202,9.3,12.7,79,0.00,CLR,OVC,0.00,WeatherDisplay:10.37,2013-04-23 21:54:00,
2013-04-23 22:59:00,45.1,39.0,29.55,SW,225,2.7,3.5,79,0.00,CLR,OVC,0.00,WeatherDisplay:10.37,2013-04-23 21:59:00,
2013-04-23 23:04:00,45.1,39.0,29.55,SSW,202,5.8,5.8,79,0.00,CLR,OVC,0.00,WeatherDisplay:10.37,2013-04-23 22:04:00,
2013-04-23 23:09:00,45.1,39.0,29.55,WSW,248,4.8,6.9,79,0.00,CLR,OVC,0.00,WeatherDisplay:10.37,2013-04-23 22:09:00,
2013-04-23 23:14:00,45.1,39.0,29.55,SSW,202,8.0,8.0,79,0.00,CLR,OVC,0.00,WeatherDisplay:10.37,2013-04-23 22:14:00,
2013-04-23 23:19:00,45.1,39.0,29.55,SSW,202,4.3,6.9,79,0.00,CLR,OVC,0.00,WeatherDisplay:10.37,2013-04-23 22:19:00,
2013-04-23 23:24:00,45.1,39.0,29.55,SSW,202,4.9,4.9,79,0.00,CLR,OVC,0.00,WeatherDisplay:10.37,2013-04-23 22:24:00,
2013-04-23 23:29:00,45.1,39.0,29.55,SSW,202,8.2,8.2,79,0.00,CLR,OVC,0.00,WeatherDisplay:10.37,2013-04-23 22:29:00,
2013-04-23 23:34:00,45.1,39.0,29.55,South,180,8.0,9.2,79,0.00,CLR,OVC,0.00,WeatherDisplay:10.37,2013-04-23 22:34:00,
2013-04-23 23:39:00,45.1,39.0,29.54,SSE,158,4.3,4.6,79,0.00,CLR,OVC,0.00,WeatherDisplay:10.37,2013-04-23 22:39:00,
2013-04-23 23:44:00,45.1,39.0,29.54,SSE,158,5.1,5.1,79,0.00,CLR,OVC,0.00,WeatherDisplay:10.37,2013-04-23 22:44:00,
2013-04-23 23:49:00,45.1,39.0,29.54,SSE,158,5.1,5.1,79,0.00,CLR,OVC,0.00,WeatherDisplay:10.37,2013-04-23 22:49:00,
2013-04-23 23:54:00,45.1,39.3,29.54,SW,225,3.8,3.8,80,0.00,CLR,OVC,0.00,WeatherDisplay:10.37,2013-04-23 22:54:00,
2013-04-23 23:59:00,45.1,39.3,29.54,SSE,158,6.3,6.9,80,0.00,CLR,OVC,0.00,WeatherDisplay:10.37,2013-04-23 22:59:00,